星链-11171 [DTC] (STARLINK-11171 [DTC] )

导读 | 豆包AI

STARLINK-11171是美国SpaceX公司星链(Starlink)卫星互联网星座的一员,于2024年6月19日发射升空。作为低轨通信卫星,它运行在近地轨道,依托星链星座的组网设计,为全球提供高速低延迟互联网接入服务,尤其覆盖传统基础设施难以抵达的偏远区域,同时也可支持军事与应急通信场景,是星链大规模扩展全球卫星网络布局的组成部分。

基本信息
目录编号:
60069
目录名称:
STARLINK-11171
国际标识:
2024-113L
轨道中心:
EARTH
卫星名称:
星链-11171 [DTC]
卫星全名:
星链-11171 [DTC] (STARLINK-11171 [DTC] )
卫星状态:
在轨 (已飞行705 天)
发射日期:
2024-06-19 UTC
国别 :
美国 (US)
星等 :
--
轨道信息
数据来源 国际轨道数据
星历时间: 2026-05-23T17:58:13+0800
1天前
查看轨道信息
半长轴: 6737.882km
偏心率: 0.0000996
轨道倾角: 53.160°
近地点辐角 99.903°
升交点赤经 183.137°
平近点角 260.210°
近地点: 359.073km
远地点: 360.417km
周期: 91.737分钟
每日圈数: 15.697039
详细信息
固有亮度:
5
最大亮度:
0.3
卫星平台:
Starlink v2.0 mini
覆盖范围:
全球
运营商:
太空探索技术公司
运营商所在国:
美国
制造商(研发单位):
太空探索技术公司
制造商所在国:
美国
使用方式:
暂无
卫星简介
星链(Starlink)计划是由太空探索技术公司(SpaceX)提出的一个巨型低轨卫星互联网星座项目,计划在2019年至2024年间在太空搭建由约1.2万颗卫星组成的“星链”网络,其中1584颗将部署在地球上空550千米处的近地轨道,并从2020年开始工作。该卫星仍在工作。
2D轨道图
3D轨道图
轨道高度分析图
轨道倾角分析图
轨道综合分析图
查看轨道综合分析图